Home   Weather   Clarksville   Past weeks
Flag for USA

Past Weather in Clarksville, Tennessee, USA — Yesterday and Last 2 Weeks

Now
73 °F

Clear.


Feels Like: 71 °F
Forecast: 89 / 68 °F
Wind: No wind

Location: Outlaw Field

Current Time: May 26, 2019 at 10:50:15 pm

Latest Report: May 26, 2019 at 9:52 pm


Visibility: 7 mi

Pressure: 30.03 "Hg

Humidity: 90%

Dew Point: 70 °F

Location of ClarksvilleLocation

Past Weather in Clarksville — Graph

°F

Clarksville Temperature Yesterday

Maximum temperature yesterday: 88 °F (at 2:52 pm)
Minimum temperature yesterday: 70 °F (at 4:52 am)
Average temperature yesterday: 79 °F

High & Low Weather Summary for the Past Weeks

 TemperatureHumidityPressure
High89 °F (May 24, 2:52 pm)94% (May 20, 2:40 am)30.16 "Hg (May 20, 2:40 am)
Low42 °F (May 14, 5:52 am)32% (May 14, 5:52 pm)29.76 "Hg (May 12, 1:52 am)
Average70 °F69%29.96 "Hg
* Reported May 11 8:52 pm — May 26 8:52 pm, Clarksville. Weather by CustomWeather, © 2019

Note: Actual official high and low records may vary slightly from our data, if they occured in-between our weather recording intervals... More about our weather records

Advertising

Clarksville Weather History for the Previous 24 Hours

Scroll right to see more
 ConditionsComfort  
Time TempWeatherWind HumidityBarometerVisibility
8:52 pm
Sun, May 26
74 °FOvercast.No wind91%30.03 "Hg8 mi
7:52 pm76 °FPassing clouds.No wind82%30.03 "Hg10 mi
6:52 pm76 °FBroken clouds.3 mph80%30.03 "Hg10 mi
6:40 pm75 °FLight rain. Partly sunny.5 mph82%30.05 "Hg2 mi
6:37 pm74 °FLight rain. Mostly cloudy.5 mph82%30.05 "Hg1 mi
5:59 pm76 °FRain. Mostly cloudy.8 mph74%30.06 "Hg5 mi
5:44 pm75 °FThunderstorms. Mostly cloudy.14 mph74%30.06 "Hg10 mi
5:33 pm79 °FThundershowers. Mostly cloudy.18 mph67%30.06 "Hg10 mi
4:52 pm87 °FScattered clouds.13 mph45%30.03 "Hg10 mi
3:52 pm89 °FPassing clouds.17 mph42%30.03 "Hg10 mi
2:52 pm89 °FPassing clouds.15 mph42%30.04 "Hg10 mi
1:52 pm89 °FSunny.14 mph43%30.05 "Hg10 mi
12:52 pm87 °FScattered clouds.14 mph45%30.07 "Hg10 mi
11:52 am87 °FSunny.14 mph46%30.08 "Hg10 mi
10:52 am85 °FSunny.15 mph50%30.09 "Hg10 mi
9:52 am83 °FSunny.9 mph59%30.09 "Hg10 mi
8:52 am79 °FSunny.8 mph62%30.09 "Hg10 mi
7:52 am76 °FSunny.7 mph69%30.10 "Hg10 mi
6:52 am70 °FSunny.5 mph84%30.11 "Hg10 mi
5:52 am65 °FFog.No wind94%30.10 "Hg5 mi
5:33 am65 °FFog.3 mph91%30.11 "Hg1 mi
5:22 am64 °FFog.No wind94%30.11 "Hg2 mi
4:52 am65 °FSunny.No wind94%30.09 "Hg7 mi
3:52 am67 °FFog.No wind90%30.07 "Hg3 mi
2:52 am68 °FClear.No wind87%30.06 "Hg10 mi
1:52 am69 °FClear.No wind84%30.06 "Hg10 mi
12:52 am71 °FClear.No wind78%30.05 "Hg10 mi
11:52 pm
Sat, May 25
73 °FClear.3 mph76%30.06 "Hg10 mi
10:52 pm74 °FClear.No wind71%30.06 "Hg10 mi
Weather by CustomWeather, © 2019

See weather overview